CUTE-LASP

导读

CUTE-LASP(全称科罗拉多紫外线凌日实验,简称CUTE)是美国宇航局资助的立方体卫星任务,由科罗拉多大学博尔德分校大气和空间物理实验室(LASP)研制,于2021年9月27日随Atlas V火箭在加州范登堡基地,与Landsat 9共同发射入轨。作为NASA首个用于观测系外行星的立方体卫星,它尺寸仅相当于麦片盒,通过紫外望远镜追踪热木星的大气蒸发过程,已揭示不同热木星大气流失速率的显著差异,为小天体物理探测提供了创新实践。

基本信息
目录编号:
49263
目录名称:
CUTE-LASP
国际标识:
2021-088D
轨道中心:
EARTH
卫星名称:
CUTE-LASP
卫星全名:
--
卫星状态:
在轨 (已飞行1751 天)
发射日期:
2021-09-27 UTC
国别 :
美国 (US)
星等 :
--
轨道信息
数据来源 国际轨道数据
星历时间: 2026-07-14T03:43:20+0800
8小时前
查看轨道信息
半长轴: 6605.769km
偏心率: 0.0009233
轨道倾角: 97.400°
近地点辐角 294.193°
升交点赤经 296.984°
平近点角 65.839°
近地点: 221.532km
远地点: 233.732km
周期: 89.052分钟
每日圈数: 16.170288
详细信息
使用方式:
暂无
2D轨道图
3D轨道图
轨道高度分析图
轨道倾角分析图
轨道综合分析图
查看轨道综合分析图